This is the latest recevied weather packets stored in our database for station/object KD0RII. If no packets are shown the sender has not sent any weather packets the latest 10 day(s).
| Time | Temp. | Humidity | Pressure | Rain* | Wind** | Luminosity | Snow |
|---|---|---|---|---|---|---|---|
| 1778045934 | 7.78° C | 82% | 1017.2 hPa | 3.05 mm | - | 0 W/m² | - |
| 1778045632 | 8.33° C | 80% | 1017 hPa | 1.78 mm | - | 0 W/m² | - |
| 1778045330 | 8.33° C | 79% | 1017 hPa | 1.78 mm | - | 0 W/m² | - |
| 1778045029 | 8.89° C | 78% | 1016.9 hPa | 0 mm | - | 0 W/m² | - |
| 1778044726 | 8.89° C | 77% | 1017.1 hPa | 0 mm | - | 0 W/m² | - |
| 1778044422 | 8.89° C | 76% | 1016.7 hPa | 0 mm | - | 0 W/m² | - |
| 1778044120 | 8.89° C | 74% | 1016.7 hPa | 0 mm | - | 0 W/m² | - |
| 1778043817 | 9.44° C | 74% | 1016.5 hPa | 0 mm | - | 0 W/m² | - |
| 1778043514 | 9.44° C | 73% | 1016.6 hPa | 0 mm | - | 0 W/m² | - |
| 1778043210 | 8.89° C | 75% | 1016.1 hPa | 0 mm | - | 0 W/m² | - |
| 1778042907 | 8.89° C | 78% | 1016.3 hPa | 0 mm | - | 0 W/m² | - |
| 1778042605 | 8.89° C | 79% | 1016.3 hPa | 0 mm | - | 0 W/m² | - |
| 1778042302 | 8.89° C | 80% | 1016.3 hPa | 0 mm | - | 0 W/m² | - |
| 1778041999 | 8.89° C | 78% | 1016.4 hPa | 0 mm | - | 0 W/m² | - |
| 1778041698 | 8.89° C | 78% | 1016.3 hPa | 0 mm | - | 0 W/m² | - |
| 1778041396 | 8.89° C | 77% | 1016.5 hPa | 0 mm | - | 0 W/m² | - |
| 1778041095 | 8.89° C | 76% | 1016.3 hPa | 0 mm | - | 0 W/m² | - |
| 1778040791 | 8.89° C | 77% | 1016.2 hPa | 1.27 mm | - | 0 W/m² | - |
| 1778040488 | 9.44° C | 77% | 1016.2 hPa | 1.27 mm | - | 0 W/m² | - |
| 1778040186 | 9.44° C | 75% | 1016.1 hPa | 0 mm | - | 0 W/m² | - |
| 1778039882 | 9.44° C | 78% | 1016.2 hPa | 0 mm | - | 0 W/m² | - |
| 1778039579 | 9.44° C | 77% | 1015.8 hPa | 0 mm | - | 0 W/m² | - |
| 1778039276 | 9.44° C | 76% | 1016.2 hPa | 0 mm | - | 0 W/m² | - |
| 1778038974 | 10° C | 74% | 1015.8 hPa | 0 mm | - | 0 W/m² | - |
| 1778038670 | 9.44° C | 70% | 1015.9 hPa | 0 mm | - | 0 W/m² | - |
* Rain latest hour (hover to see other rain measurements)
** Current wind speed in m/s (hover to see current wind gust speed)